This is the latest recevied weather packets stored in our database for station/object NC4J. If no packets are shown the sender has not sent any weather packets the latest 10 day(s).
| Time | Temp. | Humidity | Pressure | Rain* | Wind** | Luminosity | Snow |
|---|---|---|---|---|---|---|---|
| 1778155915 | 15° C | 99% | 1011.4 hPa | 0 mm | - | 15 W/m² | - |
| 1778155612 | 15° C | 99% | 1011.3 hPa | 1.78 mm | - | 16 W/m² | - |
| 1778155309 | 15° C | 99% | 1011.2 hPa | 1.78 mm | - | 12 W/m² | - |
| 1778155005 | 15° C | 99% | 1011.4 hPa | 0 mm | - | 7 W/m² | - |
| 1778154700 | 15° C | 99% | 1011.5 hPa | 1.27 mm | - | 4 W/m² | - |
| 1778154396 | 15° C | 99% | 1012 hPa | 3.05 mm | - | 5 W/m² | - |
| 1778154094 | 15° C | 99% | 1012.1 hPa | 4.32 mm | - | 7 W/m² | - |
| 1778153791 | 15° C | 99% | 1012.4 hPa | 1.27 mm | - | 4 W/m² | - |
| 1778153488 | 15° C | 99% | 1012.8 hPa | 0 mm | - | 3 W/m² | - |
| 1778153186 | 15° C | 99% | 1012.8 hPa | 1.78 mm | - | 2 W/m² | - |
| 1778152882 | 15° C | 99% | 1012.9 hPa | 3.05 mm | - | 3 W/m² | - |
| 1778152580 | 15° C | 99% | 1012.5 hPa | 3.05 mm | - | 6 W/m² | - |
| 1778152276 | 15° C | 99% | 1012.6 hPa | 4.83 mm | - | 5 W/m² | - |
| 1778151972 | 15° C | 99% | 1012.8 hPa | 4.83 mm | - | 1 W/m² | - |
| 1778151669 | 15° C | 99% | 1012.8 hPa | 7.11 mm | - | 1 W/m² | - |
| 1778151366 | 15° C | 99% | 1013.2 hPa | 6.1 mm | - | 1 W/m² | - |
| 1778151062 | 15° C | 99% | 1013.1 hPa | 1.78 mm | - | 0 W/m² | - |
| 1778150760 | 15° C | 99% | 1013 hPa | 0 mm | - | 0 W/m² | - |
| 1778150456 | 15° C | 99% | 1011.8 hPa | 0 mm | - | 0 W/m² | - |
| 1778150152 | 15° C | 99% | 1011.5 hPa | 0 mm | - | 0 W/m² | - |
| 1778149849 | 15° C | 99% | 1011.7 hPa | 0 mm | - | 0 W/m² | - |
| 1778149545 | 15° C | 99% | 1011.4 hPa | 0 mm | - | 0 W/m² | - |
| 1778149242 | 15° C | 99% | 1011.6 hPa | 0 mm | - | 0 W/m² | - |
| 1778148937 | 15° C | 99% | 1012 hPa | 0 mm | - | 0 W/m² | - |
| 1778148634 | 15° C | 99% | 1012.2 hPa | 0 mm | - | 0 W/m² | - |
* Rain latest hour (hover to see other rain measurements)
** Current wind speed in m/s (hover to see current wind gust speed)